Regional Weather Roundup
Issued by NWS

Home | Current Version | Previous Version | Text Only | Print | Product List | Glossary On
Versions: 1 2 3 4 5 6 7 8 9 10 11 12 13 14 15 16 17 18 19 20 21 22 23 24 25 26 27 28 29 30 31 32 33 34 35 36 37 38 39 40 41 42 43 44 45 46 47 48 49 50
000
ASUS43 KIND 031209
RWRIN

WEATHER ROUNDUP FOR INDIANA
NATIONAL WEATHER SERVICE INDIANAPOLIS IN
800 AM EDT TUE AUG 03 2021

NOTE: "FAIR" INDICATES FEW OR NO CLOUDS BELOW 12,000 FEET WITH NO
SIGNIFICANT WEATHER AND/OR OBSTRUCTIONS TO VISIBILITY.

* - STATION DOES NOT REPORT WEATHER SUCH AS PRECIPITATION OR FOG.

+ - STATION NOT QUALITY CONTROLLED BY THE NATIONAL WEATHER SERVICE.
    USE DATA WITH CAUTION...ESPECIALLY DEWPOINT AND RELATIVE
    HUMIDITY OBSERVATIONS.

INZ001>003-010>013-019-020-031300-
NORTHWEST INDIANA

CITY           SKY/WX    TMP DP  RH WIND       PRES   REMARKS
GARY /AIRPORT/ MOSUNNY   61  59  94 CALM      30.13R
LA PORTE +     PTSUNNY   58  58  97 CALM      30.14R
6HR MIN TEMP:  54; 6HR MAX TEMP:  58;

MICHIGAN CITY+ PTSUNNY   55  54  94 CALM      30.13R
MONTICELLO +   SUNNY     57  55  93 CALM      30.12S
6HR MIN TEMP:  52; 6HR MAX TEMP:  56;

RENSSELAER +   CLOUDY    59  55  88 CALM      30.13R
VALPARAISO     PTSUNNY   62  59  90 CALM      30.13R
6HR MIN TEMP:  59; 6HR MAX TEMP:  62;


$$

LMZ046-743>745-031300-
SOUTHERN LAKE MICHIGAN

STATION/POSITION TIME  TEMP    WIND        PRES    WAVE
                       AIR SEA DIR/SP/G            HT
                 (UTC) (F)     (DEG/KT/KT) (MB)    (FT)
BURNS HARBOR     1140   65     170/  3/  4 1020.3R
MICHIGAN CITY    1140   64     150/  6/  6 1020.3R
5NW MICH CITY    1200   69     190/  4/  6   N/A     1

$$

INZ004-005-014>016-021>024-031300-
NORTH CENTRAL INDIANA

CITY           SKY/WX    TMP DP  RH WIND       PRES   REMARKS
ELKHART        SUNNY     61  59  94 CALM      30.13R
GOSHEN         SUNNY     56  54  93 CALM      30.13R
6HR MIN TEMP:  54; 6HR MAX TEMP:  62;

LOGANSPORT +   SUNNY    N/A N/A N/A CALM      30.14S
PERU/GRISSOM   SUNNY     59  55  86 CALM      30.12S
6HR MIN TEMP:  53; 6HR MAX TEMP:  59;

PLYMOUTH *+    CLOUDY    59  57  94 CALM      30.12S
ROCHESTER +    SUNNY     55  55 100 CALM      30.14R
SOUTH BEND     MOSUNNY   61  57  87 CALM      30.14R
6HR MIN TEMP:  57; 6HR MAX TEMP:  61;

WARSAW +       SUNNY     55  55 100 CALM      30.13S

$$

INZ006>009-017-018-025>027-031300-
NORTHEAST INDIANA

CITY           SKY/WX    TMP DP  RH WIND       PRES   REMARKS
ANGOLA *+      SUNNY     57  57 100 CALM      30.13S
AUBURN +       SUNNY     57  55  94 CALM      30.14R
FORT WAYNE     MOSUNNY   59  56  89 CALM      30.13S
6HR MIN TEMP:  53; 6HR MAX TEMP:  59;

HUNTINGTON +   SUNNY     56  55  95 CALM      30.13S
6HR MIN TEMP:  51; 6HR MAX TEMP:  56;

KENDALLVILLE + FAIR      56  56 100 CALM      30.14R

$$

INZ028-029-035-036-043>045-051>053-031300-
WEST CENTRAL INDIANA

CITY           SKY/WX    TMP DP  RH WIND       PRES   REMARKS
CRAWFORDSVL +  SUNNY     55  53  94 CALM      30.12S
6HR MIN TEMP:  50; 6HR MAX TEMP:  55;

GREENCASTLE +  FAIR      58  56  96 N3        30.12R
LAFAYETTE      SUNNY     56  55  97 CALM      30.12S
6HR MIN TEMP:  53; 6HR MAX TEMP:  57;

TERRE HAUTE    SUNNY     60  58  92 CALM      30.11R
6HR MIN TEMP:  57; 6HR MAX TEMP:  60;


$$

INZ030>032-037>040-046>048-054>057-064-065-031300-
CENTRAL INDIANA

CITY           SKY/WX    TMP DP  RH WIND       PRES   REMARKS
ANDERSON +     MOSUNNY   57  52  82 CALM      30.13S
6HR MIN TEMP:  54; 6HR MAX TEMP:  58;

COLUMBUS       SUNNY     57  55  94 NW3       30.11R
FRANKFORT +    SUNNY     59  55  88 CALM      30.12S
GREENWOOD *+   SUNNY     56  55  95 CALM      30.12R
6HR MIN TEMP:  55; 6HR MAX TEMP:  61;

INDIANAPOLIS   MOSUNNY   63  54  72 NE6       30.11R
6HR MIN TEMP:  60; 6HR MAX TEMP:  65;

-EAGLE CREEK   SUNNY     63  56  78 N3        30.11R
6HR MIN TEMP:  61; 6HR MAX TEMP:  64;

KOKOMO +       SUNNY     59  59 100 CALM      30.14R
6HR MIN TEMP:  53; 6HR MAX TEMP:  59;

MARION +       SUNNY     55  55  99 CALM      30.14S
MT COMFORT *+  CLOUDY    59  59 100 CALM      30.12S
SHELBYVILLE    MOSUNNY   61  57  87 CALM      30.10R
6HR MIN TEMP:  57; 6HR MAX TEMP:  62;


$$

INZ033-034-041-042-049-050-058-059-031300-
EAST CENTRAL INDIANA

CITY           SKY/WX    TMP DP  RH WIND       PRES   REMARKS
MUNCIE         MOSUNNY   61  55  81 CALM      30.12S
6HR MIN TEMP:  54; 6HR MAX TEMP:  61;

PORTLAND +     CLOUDY    55  54  94 CALM      30.13R
RICHMOND +     FAIR      55  55 100 NE3       30.12S

$$

INZ060-061-067>069-081>083-085>088-031300-
SOUTHWEST INDIANA

CITY           SKY/WX    TMP DP  RH WIND       PRES   REMARKS
EVANSVILLE     SUNNY     64  59  83 N5        30.07S
6HR MIN TEMP:  63; 6HR MAX TEMP:  66;

HUNTINGBURG +  CLOUDY    62  62 100 CALM      30.08R
6HR MIN TEMP:  60; 6HR MAX TEMP:  62;

WASHINGTON +   PTSUNNY  N/A N/A N/A CALM      30.09S

$$

INZ062-063-066-070>080-084-089>092-031300-
SOUTH CENTRAL AND SOUTHEAST INDIANA

CITY           SKY/WX    TMP DP  RH WIND       PRES   REMARKS
BATESVILLE +   SUNNY     57  57 100 CALM      30.11R
BLOOMINGTON    SUNNY     59  58  96 CALM      30.10R
6HR MIN TEMP:  55; 6HR MAX TEMP:  59;

MADISON *+     SUNNY     61  61 100 NE3       30.11R

$$




USA.gov is the U.S. government's official web portal to all federal, state and local government web resources and services.